Location: Newark
(45.5000°N, 11.4167°E)
Time: 17:41:43
(UTC+00:00)

Transit 2A Rocket - Pass Details

Date: 03 September 2019
Orbit: 593 x 910 km, 66.7° (Epoch: 14 October)

Event Time Altitude Azimuth Distance (km) Brightness Sun altitude
Rises 17:59:51 0° 275° (W) 3,308 10.8 -2.7°
Reaches altitude 10° 18:03:54 10° 303° (WNW) 2,299 9.0 -3.3°
Maximum altitude 18:06:08 13° 329° (NNW) 2,078 8.0 -3.7°
Drops below altitude 10° 18:08:18 10° 355° (N) 2,210 7.7 -4.1°
Sets 18:12:02 0° 24° (NNE) 3,053 8.0 -4.7°
